HK6REC-21 Weather Reports


Display with metric or nautical units.
time (UTC)temp
F
wind
direction
speed
MPH
gust
MPH
rain 1hr
in
rain 24hr
in
rain mn
in
humidity
%
barometer
mb
20260504175438 72 0 5.0 0.0 0.00 0.00 0.00 85 1011.0
20260504173437 74 0 5.0 0.0 0.00 0.00 0.00 84 1012.0
20260504171436 71 0 5.0 0.0 0.00 0.00 0.00 87 1014.0
20260504081410 58 200 3.0 0.0 0.00 0.00 0.00 91 1015.0
20260504045400 62 200 3.0 0.0 0.02 0.00 0.00 91 1016.0
20260504043359 62 200 3.0 0.0 0.01 0.00 0.00 91 1016.0
20260504041359 62 200 3.0 0.0 0.00 0.00 0.00 91 1017.0
20260504035357 63 200 3.0 0.0 0.00 0.00 0.00 91 1016.0
20260504033357 63 200 3.0 0.0 0.00 0.00 0.00 91 1016.0
20260504031356 63 200 3.0 0.0 0.00 0.00 0.00 91 1016.0
20260504025354 64 200 3.0 0.0 0.00 0.00 0.00 91 1016.0
20260504023353 64 200 3.0 0.0 0.00 0.00 0.00 91 1015.0
20260504021353 64 200 3.0 0.0 0.00 0.00 0.00 91 1015.0
20260504015351 65 200 3.0 0.0 0.00 0.00 0.00 90 1015.0
20260504013351 65 200 3.0 0.0 0.00 0.00 0.00 90 1014.0
20260504011350 65 200 3.0 0.0 0.00 0.00 0.00 91 1014.0
20260504005349 66 200 3.0 0.0 0.00 0.00 0.00 91 1014.0
20260504003348 66 200 3.0 0.0 0.00 0.00 0.00 89 1013.0
20260504001347 67 200 3.0 0.0 0.00 0.00 0.00 90 1012.0
20260503235346 67 300 3.0 0.0 0.00 0.00 0.00 91 1012.0
20260503233345 67 300 3.0 0.0 0.00 0.00 0.00 91 1012.0
20260503231344 67 300 3.0 0.0 0.00 0.00 0.00 91 1011.0
20260503225343 68 300 3.0 0.0 0.00 0.00 0.00 91 1010.0
20260503223342 68 300 3.0 0.0 0.00 0.00 0.00 91 1010.0
20260503221341 68 300 3.0 0.0 0.00 0.00 0.00 91 1011.0
20260503215340 69 300 3.0 0.0 0.00 0.00 0.00 91 1010.0
20260503213339 69 300 3.0 0.0 0.00 0.00 0.00 91 1010.0
20260503211338 69 300 3.0 0.0 0.00 0.00 0.00 91 1010.0
20260503205337 70 300 3.0 0.0 0.00 0.00 0.00 91 1009.0
20260503203337 70 300 3.0 0.0 0.00 0.00 0.00 91 1009.0
20260503201334 71 300 3.0 0.0 0.00 0.00 0.00 88 1010.0
20260503195333 72 300 3.0 0.0 0.00 0.00 0.00 89 1009.0
20260503193332 72 300 3.0 0.0 0.00 0.00 0.00 89 1010.0
20260503191331 72 300 3.0 0.0 0.00 0.00 0.00 88 1011.0
20260503185330 72 360 3.0 0.0 0.00 0.00 0.00 89 1010.0
20260503183329 72 360 3.0 0.0 0.00 0.00 0.00 89 1010.0
20260503181329 72 360 3.0 0.0 0.00 0.00 0.00 89 1012.0